This is the latest recevied weather packets stored in our database for station/object WB5CFT. If no packets are shown the sender has not sent any weather packets the latest 10 day(s).
| Time | Temp. | Humidity | Pressure | Rain* | Wind** | Luminosity | Snow |
|---|---|---|---|---|---|---|---|
| 1777232418 | 31.67° C | 18% | 1007.3 hPa | 0 mm | - | 829 W/m² | - |
| 1777232115 | 31.67° C | 18% | 1007.7 hPa | 0 mm | - | 853 W/m² | - |
| 1777231812 | 32.78° C | 18% | 1007.6 hPa | 0 mm | - | 881 W/m² | - |
| 1777231508 | 31.67° C | 18% | 1007.7 hPa | 0 mm | - | 899 W/m² | - |
| 1777231204 | 31.11° C | 19% | 1007.9 hPa | 0 mm | - | 840 W/m² | - |
| 1777230900 | 31.67° C | 18% | 1008 hPa | 0 mm | - | 201 W/m² | - |
| 1777230596 | 31.67° C | 19% | 1008 hPa | 0 mm | - | 179 W/m² | - |
| 1777230292 | 31.67° C | 18% | 1008.2 hPa | 0 mm | - | 881 W/m² | - |
| 1777229989 | 31.67° C | 18% | 1008.3 hPa | 0 mm | - | 854 W/m² | - |
| 1777229685 | 31.67° C | 19% | 1008.2 hPa | 0 mm | - | 866 W/m² | - |
| 1777229382 | 31.67° C | 19% | 1008.4 hPa | 0 mm | - | 889 W/m² | - |
| 1777229079 | 31.67° C | 19% | 1008.4 hPa | 0 mm | - | 860 W/m² | - |
| 1777228777 | 31.67° C | 19% | 1008.2 hPa | 0 mm | - | 840 W/m² | - |
| 1777228471 | 31.11° C | 19% | 1008.2 hPa | 0 mm | - | 842 W/m² | - |
| 1777228168 | 31.11° C | 19% | 1008.5 hPa | 0 mm | - | 833 W/m² | - |
| 1777227867 | 30.56° C | 20% | 1008.7 hPa | 0 mm | - | 828 W/m² | - |
| 1777227564 | 30.56° C | 19% | 1008.7 hPa | 0 mm | - | 819 W/m² | - |
| 1777227259 | 30.56° C | 19% | 1008.8 hPa | 0 mm | - | 458 W/m² | - |
| 1777226956 | 30.56° C | 20% | 1008.9 hPa | 0 mm | - | 717 W/m² | - |
| 1777226655 | 30.56° C | 19% | 1009.2 hPa | 0 mm | - | 806 W/m² | - |
| 1777226350 | 30.56° C | 19% | 1009.2 hPa | 0 mm | - | 799 W/m² | - |
| 1777226046 | 30.56° C | 19% | 1009.4 hPa | 0 mm | - | 796 W/m² | - |
| 1777225743 | 30° C | 19% | 1009.2 hPa | 0 mm | - | 789 W/m² | - |
| 1777225440 | 30.56° C | 20% | 1009.4 hPa | 0 mm | - | 783 W/m² | - |
| 1777225136 | 30° C | 19% | 1009.8 hPa | 0 mm | - | 776 W/m² | - |
* Rain latest hour (hover to see other rain measurements)
** Current wind speed in m/s (hover to see current wind gust speed)